Location: Bow
(51.5261°N, 0.0167°W)
Time: 05:27:00
(UTC+00:00)

USA 186 - Pass Details

Date: 18 September 2020
Orbit: 261 x 425 km, 96.9° (Epoch: 12 October)

Event Time Altitude Azimuth Distance (km) Brightness Sun altitude
Exits shadow 18:49:23 - 139° (SE) 1,813 4.5 -7.4°
Reaches altitude 10° 18:50:17 10° 133° (SE) 1,455 4.0 -7.5°
Maximum altitude 18:53:06 31° 69° (ENE) 752 2.6 -8.0°
Drops below altitude 10° 18:56:01 10° 5° (N) 1,520 4.7 -8.4°
Sets 18:58:12 0° 355° (N) 2,404 5.8 -8.8°
